Location: Newark
(55.7816°N, 8.2389°E)
Time: 03:43:58
(UTC+00:00)

LilacSat-2 - Pass Details

Date: 01 March 2020
Orbit: 514 x 534 km, 97.5° (Epoch: 04 April)

Event Time Altitude Azimuth Distance (km) Brightness Sun altitude
Rises 04:28:49 0° 24° (NNE) 2,663 ? -16.0°
Reaches altitude 10° 04:31:21 10° 41° (NE) 1,773 ? -15.7°
Maximum altitude 04:34:17 21° 91° (E) 1,233 ? -15.2°
Drops below altitude 10° 04:37:12 10° 141° (SE) 1,770 ? -14.8°
Sets 04:39:43 0° 158° (SSE) 2,657 ? -14.5°
